FW9574 Weather Reports


time (UTC)temp
C
wind
direction
speed
KPH
gust
KPH
rain 1hr
cm
rain 24hr
cm
rain mn
cm
humidity
%
barometer
mb
20260901112545 13 135 0.0 1.6 0.00 0.00 0.00 95 1012.7
20260901112040 13 86 3.2 3.2 0.00 0.00 0.00 95 1012.7
20260901111539 13 116 3.2 4.8 0.00 0.00 0.00 95 1012.8
20260901111037 13 156 6.4 6.4 0.00 0.00 0.00 95 1012.5
20260901110533 13 150 3.2 4.8 0.00 0.00 0.00 94 1012.6
20260901110029 13 96 1.6 3.2 0.00 0.00 0.00 94 1012.4
20260901105525 13 72 3.2 3.2 0.00 0.00 0.00 94 1012.5
20260901105024 13 110 3.2 3.2 0.00 0.00 0.00 94 1012.7
20260901104521 13 19 0.0 3.2 0.00 0.00 0.00 94 1012.7
20260901104015 13 124 3.2 4.8 0.00 0.00 0.00 94 1012.7
20260901103510 13 162 4.8 6.4 0.00 0.00 0.00 95 1012.6
20260901103006 13 120 1.6 6.4 0.00 0.00 0.00 95 1012.5
20260901102505 13 157 6.4 8.0 0.00 0.00 0.00 95 1012.3
20260901102000 13 119 3.2 4.8 0.00 0.00 0.00 95 1012.2
20260901101455 13 155 4.8 6.4 0.00 0.00 0.00 95 1012.0
20260901100949 13 117 3.2 3.2 0.00 0.00 0.00 95 1012.0
20260901100444 13 105 1.6 3.2 0.00 0.00 0.00 94 1011.9
20260901095943 13 113 3.2 3.2 0.00 0.00 0.00 94 1012.1
20260901095443 13 104 1.6 3.2 0.00 0.00 0.00 94 1012.2
20260901094941 13 138 3.2 4.8 0.00 0.00 0.00 94 1012.2
20260901094435 13 110 1.6 3.2 0.00 0.00 0.00 94 1012.1
20260901093929 13 77 0.0 3.2 0.00 0.00 0.00 94 1012.1
20260901093424 13 137 3.2 4.8 0.00 0.00 0.00 94 1012.1
20260901092919 13 162 4.8 4.8 0.00 0.00 0.00 94 1012.1
20260901092415 13 153 3.2 3.2 0.00 0.00 0.00 93 1012.0
20260901091911 13 100 0.0 1.6 0.00 0.00 0.00 93 1011.9
20260901091410 13 67 0.0 3.2 0.00 0.00 0.00 93 1011.7
20260901090905 13 113 3.2 3.2 0.00 0.00 0.00 93 1011.9
20260901090359 13 117 1.6 3.2 0.00 0.00 0.00 93 1011.9
20260901085855 13 138 3.2 4.8 0.00 0.00 0.00 93 1011.8
20260901085350 13 123 1.6 4.8 0.00 0.00 0.00 93 1011.9
20260901084842 14 149 4.8 6.4 0.00 0.00 0.00 94 1011.8
20260901084337 13 167 3.2 3.2 0.00 0.00 0.00 93 1011.7
20260901083832 13 109 1.6 1.6 0.00 0.00 0.00 93 1011.7
20260901083327 13 113 0.0 1.6 0.00 0.00 0.00 93 1011.8
20260901082825 13 89 0.0 0.0 0.00 0.00 0.00 92 1011.9
20260901082321 14 68 0.0 1.6 0.00 0.00 0.00 92 1011.8
20260901081816 14 122 1.6 1.6 0.00 0.00 0.00 92 1011.9
20260901081315 14 89 0.0 3.2 0.00 0.00 0.00 92 1012.1
20260901080810 14 135 1.6 1.6 0.00 0.00 0.00 92 1012.1
20260901080310 15 106 1.6 3.2 0.00 0.00 0.00 92 1012.1
20260901075804 15 139 1.6 3.2 0.00 0.00 0.00 92 1012.1
20260901075259 14 149 1.6 3.2 0.00 0.00 0.00 92 1012.2
20260901074754 15 112 1.6 3.2 0.00 0.00 0.00 91 1012.4
20260901074249 15 124 0.0 3.2 0.00 0.00 0.00 91 1012.3
20260901073745 15 111 1.6 3.2 0.00 0.00 0.00 90 1011.8
20260901073240 15 135 3.2 3.2 0.00 0.00 0.00 89 1011.9
20260901072736 15 100 3.2 3.2 0.00 0.00 0.00 89 1012.1
20260901072230 15 89 3.2 3.2 0.00 0.00 0.00 89 1012.0
20260901071725 15 117 3.2 4.8 0.00 0.00 0.00 89 1012.0
20260901071225 15 106 3.2 4.8 0.00 0.00 0.00 88 1012.1
20260901070724 15 96 3.2 3.2 0.00 0.00 0.00 88 1012.1
20260901070219 15 116 3.2 3.2 0.00 0.00 0.00 87 1012.1
20260901065718 16 135 1.6 4.8 0.00 0.00 0.00 86 1011.9
20260901065214 16 119 1.6 3.2 0.00 0.00 0.00 85 1012.1
20260901064710 16 68 0.0 3.2 0.00 0.00 0.00 85 1012.1
20260901064206 16 96 3.2 4.8 0.00 0.00 0.00 84 1011.9
20260901063703 16 94 3.2 3.2 0.00 0.00 0.00 84 1012.2
20260901063159 16 89 3.2 3.2 0.00 0.00 0.00 84 1012.3
20260901062654 16 97 1.6 3.2 0.00 0.00 0.00 83 1012.0
20260901062150 16 158 0.0 4.8 0.00 0.00 0.00 84 1012.3
20260901061647 16 129 0.0 3.2 0.00 0.00 0.00 84 1012.4
20260901061146 16 156 1.6 4.8 0.00 0.00 0.00 84 1012.3
20260901060641 16 166 3.2 4.8 0.00 0.00 0.00 85 1012.3
20260901060137 16 154 3.2 6.4 0.00 0.00 0.00 85 1012.2
20260901055632 16 127 3.2 4.8 0.00 0.00 0.00 84 1012.2
20260901055129 16 148 3.2 4.8 0.00 0.00 0.00 83 1012.2
20260901054625 17 207 3.2 3.2 0.00 0.00 0.00 81 1012.0
20260901054121 17 60 0.0 3.2 0.00 0.00 0.00 80 1012.1
20260901053617 18 0 1.6 3.2 0.00 0.00 0.00 78 1012.0
20260901053114 18 160 6.4 6.4 0.00 0.00 0.00 77 1011.9
20260901052612 18 161 4.8 4.8 0.00 0.00 0.00 77 1012.0
20260901052108 18 168 3.2 4.8 0.00 0.00 0.00 76 1011.9
20260901051608 18 172 3.2 4.8 0.00 0.00 0.00 76 1011.9
20260901051106 18 166 3.2 6.4 0.00 0.00 0.00 75 1011.9
20260901050602 18 168 1.6 4.8 0.00 0.00 0.00 74 1011.8
20260901050056 18 159 4.8 4.8 0.00 0.00 0.00 73 1011.7
20260901045551 18 160 3.2 6.4 0.00 0.00 0.00 73 1011.6
20260901045046 18 161 3.2 6.4 0.00 0.00 0.00 72 1011.5
20260901044542 18 159 3.2 6.4 0.00 0.00 0.00 72 1011.6
20260901044038 18 162 3.2 4.8 0.00 0.00 0.00 73 1011.5
20260901043533 17 158 4.8 4.8 0.00 0.00 0.00 73 1011.6
20260901043029 17 164 1.6 4.8 0.00 0.00 0.00 73 1011.5
20260901042528 17 140 3.2 4.8 0.00 0.00 0.00 72 1011.6
20260901042023 18 160 3.2 3.2 0.00 0.00 0.00 72 1011.6
20260901041518 18 158 3.2 6.4 0.00 0.00 0.00 70 1011.5
20260901041013 18 141 3.2 6.4 0.00 0.00 0.00 70 1011.4
20260901040508 18 142 3.2 4.8 0.00 0.00 0.00 71 1011.5
20260901040007 18 137 3.2 4.8 0.00 0.00 0.00 69 1011.4
20260901035505 17 150 4.8 4.8 0.00 0.00 0.00 70 1011.6
20260901035004 17 128 1.6 4.8 0.00 0.00 0.00 71 1011.5
20260901034504 18 131 1.6 3.2 0.00 0.00 0.00 68 1011.5
20260901033959 19 106 1.6 3.2 0.00 0.00 0.00 66 1011.5
20260901033458 19 121 3.2 4.8 0.00 0.00 0.00 64 1011.5
20260901032956 19 158 3.2 4.8 0.00 0.00 0.00 64 1011.3
20260901032451 18 158 4.8 6.4 0.00 0.00 0.00 67 1011.4
20260901031946 19 149 4.8 4.8 0.00 0.00 0.00 65 1011.4
20260901031442 20 148 3.2 3.2 0.00 0.00 0.00 63 1011.5
20260901030942 20 170 1.6 3.2 0.00 0.00 0.00 61 1011.3
20260901030437 20 197 1.6 3.2 0.00 0.00 0.00 59 1011.3
20260901025936 20 157 4.8 4.8 0.00 0.00 0.00 60 1011.3
20260901025432 20 151 4.8 4.8 0.00 0.00 0.00 59 1011.2
20260901024925 20 178 1.6 4.8 0.00 0.00 0.00 59 1011.4
20260901024420 20 143 1.6 4.8 0.00 0.00 0.00 60 1011.1
20260901023919 20 154 1.6 3.2 0.00 0.00 0.00 59 1011.1
20260901023413 21 164 3.2 6.4 0.00 0.00 0.00 59 1011.0
20260901022909 21 139 3.2 4.8 0.00 0.00 0.00 59 1011.1
20260901022405 21 149 3.2 6.4 0.00 0.00 0.00 59 1011.0
20260901021859 21 179 1.6 3.2 0.00 0.00 0.00 58 1011.0
20260901021355 21 147 3.2 3.2 0.00 0.00 0.00 56 1011.1
20260901020849 21 212 0.0 3.2 0.00 0.00 0.00 54 1010.9
20260901020345 21 210 0.0 3.2 0.00 0.00 0.00 53 1011.0
20260901015843 22 158 3.2 4.8 0.00 0.00 0.00 52 1010.8
20260901015340 22 149 3.2 4.8 0.00 0.00 0.00 52 1011.0
20260901014839 22 163 3.2 4.8 0.00 0.00 0.00 52 1010.8
20260901014336 22 251 3.2 6.4 0.00 0.00 0.00 51 1010.6
20260901013831 22 248 0.0 3.2 0.00 0.00 0.00 51 1010.5
20260901013327 22 189 0.0 4.8 0.00 0.00 0.00 50 1010.5
20260901012822 22 242 3.2 3.2 0.00 0.00 0.00 50 1010.4
20260901012317 22 149 1.6 3.2 0.00 0.00 0.00 50 1010.5
20260901011813 22 214 1.6 3.2 0.00 0.00 0.00 49 1010.5
20260901011308 23 157 0.0 4.8 0.00 0.00 0.00 49 1010.4
20260901010802 23 189 0.0 1.6 0.00 0.00 0.00 49 1010.4
20260901010256 23 240 0.0 3.2 0.00 0.00 0.00 48 1010.5
20260901005755 23 176 1.6 3.2 0.00 0.00 0.00 48 1010.4
20260901005250 24 240 4.8 4.8 0.00 0.00 0.00 47 1010.8
20260901004749 25 199 1.6 4.8 0.00 0.00 0.00 46 1010.6
20260901004245 25 205 1.6 4.8 0.00 0.00 0.00 45 1010.8
20260901003744 25 268 3.2 3.2 0.00 0.00 0.00 44 1010.6
20260901003239 26 225 3.2 6.4 0.00 0.00 0.00 42 1010.3
20260901002732 27 192 1.6 6.4 0.00 0.00 0.00 42 1010.2
20260901002227 27 231 6.4 6.4 0.00 0.00 0.00 41 1010.3
20260901001723 28 193 3.2 6.4 0.00 0.00 0.00 42 1010.4
20260901001218 28 255 3.2 6.4 0.00 0.00 0.00 40 1010.3
20260901000713 28 254 3.2 9.7 0.00 0.00 0.00 38 1010.3
20260901000211 28 264 3.2 6.4 0.00 0.00 0.00 38 1010.5
20260831235707 28 256 4.8 6.4 0.00 0.00 0.00 37 1010.4
20260831235203 28 209 3.2 8.0 0.00 0.00 0.00 37 1010.4
20260831234703 28 233 6.4 12.9 0.00 0.00 0.00 36 1010.5
20260831234203 29 255 11.3 17.7 0.00 0.00 0.00 35 1010.3
20260831233659 29 223 8.0 11.3 0.00 0.00 0.00 34 1010.3
20260831233154 29 239 9.7 12.9 0.00 0.00 0.00 34 1010.3
20260831232649 29 227 6.4 16.1 0.00 0.00 0.00 34 1010.3
20260831232145 29 243 6.4 19.3 0.00 0.00 0.00 34 1010.5
20260831231641 29 269 17.7 17.7 0.00 0.00 0.00 33 1010.6
20260831231137 30 273 6.4 9.7 0.00 0.00 0.00 36 1010.4
20260831230632 29 207 4.8 16.1 0.00 0.00 0.00 36 1010.4
20260831230127 29 238 8.0 19.3 0.00 0.00 0.00 36 1010.3
20260831225622 30 228 9.7 20.9 0.00 0.00 0.00 36 1010.4
20260831225117 30 254 6.4 14.5 0.00 0.00 0.00 37 1010.4
20260831224612 30 265 4.8 16.1 0.00 0.00 0.00 36 1010.4
20260831224107 30 261 1.6 9.7 0.00 0.00 0.00 37 1010.1
20260831223602 30 233 20.9 20.9 0.00 0.00 0.00 35 1010.2
20260831223058 30 245 9.7 16.1 0.00 0.00 0.00 34 1010.2
20260831222554 30 227 6.4 12.9 0.00 0.00 0.00 33 1010.2
20260831222054 30 238 11.3 19.3 0.00 0.00 0.00 30 1010.0
20260831221550 30 278 12.9 17.7 0.00 0.00 0.00 31 1010.2
20260831221044 30 254 6.4 17.7 0.00 0.00 0.00 32 1010.2
20260831220539 30 148 3.2 16.1 0.00 0.00 0.00 33 1010.3
20260831220035 30 252 8.0 11.3 0.00 0.00 0.00 31 1010.3
20260831215530 30 238 9.7 19.3 0.00 0.00 0.00 34 1010.2
20260831215026 31 231 6.4 11.3 0.00 0.00 0.00 34 1010.3
20260831214523 30 228 6.4 11.3 0.00 0.00 0.00 35 1010.3
20260831214019 30 217 4.8 12.9 0.00 0.00 0.00 35 1010.5
20260831213515 31 252 9.7 14.5 0.00 0.00 0.00 33 1010.5
20260831213015 30 284 9.7 12.9 0.00 0.00 0.00 36 1010.6
20260831212512 30 238 8.0 16.1 0.00 0.00 0.00 36 1010.4
20260831212007 30 271 17.7 20.9 0.00 0.00 0.00 36 1010.3
20260831211501 30 261 14.5 17.7 0.00 0.00 0.00 34 1010.4
20260831211000 30 173 6.4 12.9 0.00 0.00 0.00 34 1010.4
20260831210455 30 244 4.8 14.5 0.00 0.00 0.00 35 1010.5
20260831205951 30 267 9.7 9.7 0.00 0.00 0.00 37 1010.5
20260831205447 29 283 6.4 17.7 0.00 0.00 0.00 37 1010.6
20260831204942 29 215 4.8 19.3 0.00 0.00 0.00 39 1010.6
20260831204442 29 278 6.4 12.9 0.00 0.00 0.00 39 1010.6
20260831203941 30 235 6.4 14.5 0.00 0.00 0.00 36 1010.9
20260831203436 29 259 4.8 16.1 0.00 0.00 0.00 37 1010.8
20260831202934 30 256 9.7 12.9 0.00 0.00 0.00 33 1010.8
20260831202430 30 241 4.8 9.7 0.00 0.00 0.00 37
20260831201929 29 272 9.7 16.1 0.00 0.00 0.00 38
20260831201427 30 263 6.4 11.3 0.00 0.00 0.00 40
20260831200924 30 262 6.4 11.3 0.00 0.00 0.00 38
20260831200419 29 212 4.8 12.9 0.00 0.00 0.00 41 1011.2
20260831195919 28 261 6.4 11.3 0.00 0.00 0.00 40 1011.2
20260831195415 28 271 8.0 9.7 0.00 0.00 0.00 41 1011.2
20260831194910 29 225 3.2 9.7 0.00 0.00 0.00 42 1011.2
20260831194405 28 269 4.8 12.9 0.00 0.00 0.00 40 1011.2
20260831193905 28 278 9.7 11.3 0.00 0.00 0.00 40 1011.2
20260831193400 28 260 14.5 14.5 0.00 0.00 0.00 41 1011.2
20260831192855 28 272 8.0 14.5 0.00 0.00 0.00 41 1011.2
20260831192350 27 253 4.8 9.7 0.00 0.00 0.00 45 1011.2
20260831191845 28 300 6.4 12.9 0.00 0.00 0.00 43 1011.2
20260831191341 28 303 8.0 16.1 0.00 0.00 0.00 44 1011.2
20260831190837 28 262 6.4 9.7 0.00 0.00 0.00 46 1011.2
20260831190336 27 296 4.8 20.9 0.00 0.00 0.00 47 1011.3
20260831185836 27 271 6.4 9.7 0.00 0.00 0.00 47 1011.1
20260831185332 27 280 6.4 11.3 0.00 0.00 0.00 48
20260831184831 27 255 14.5 20.9 0.00 0.00 0.00 46
20260831184332 26 191 12.9 14.5 0.00 0.00 0.00 48
20260831183827 26 263 8.0 14.5 0.00 0.00 0.00 48
20260831183326 27 292 4.8 11.3 0.00 0.00 0.00 49
20260831182825 27 286 11.3 12.9 0.00 0.00 0.00 50
20260831182321 26 351 3.2 6.4 0.00 0.00 0.00 50
20260831181817 26 255 6.4 9.7 0.00 0.00 0.00 52
20260831181312 26 259 9.7 17.7 0.00 0.00 0.00 50
20260831180807 26 242 9.7 17.7 0.00 0.00 0.00 50
20260831180306 26 293 4.8 9.7 0.00 0.00 0.00 50
20260831175806 26 285 3.2 12.9 0.00 0.00 0.00 52
20260831175305 26 279 4.8 16.1 0.00 0.00 0.00 50
20260831174758 25 285 6.4 8.0 0.00 0.00 0.00 54
20260831174253 26 269 4.8 9.7 0.00 0.00 0.00 53
20260831173752 25 240 3.2 9.7 0.00 0.00 0.00 53
20260831173241 25 269 4.8 9.7 0.00 0.00 0.00 52
20260831172736 25 309 6.4 11.3 0.00 0.00 0.00 52
20260831172231 25 291 3.2 6.4 0.00 0.00 0.00 54
20260831171726 25 243 4.8 8.0 0.00 0.00 0.00 55
20260831171223 25 252 6.4 12.9 0.00 0.00 0.00 57
20260831170719 25 273 8.0 16.1 0.00 0.00 0.00 55
20260831170210 25 20 3.2 8.0 0.00 0.00 0.00 58
20260831165706 25 254 9.7 9.7 0.00 0.00 0.00 56
20260831165202 25 28 3.2 6.4 0.00 0.00 0.00 57
20260831164658 24 275 8.0 11.3 0.00 0.00 0.00 60
20260831164154 24 262 4.8 9.7 0.00 0.00 0.00 60
20260831163649 25 0 3.2 4.8 0.00 0.00 0.00 57
20260831163145 24 271 4.8 9.7 0.00 0.00 0.00 60
20260831162643 25 263 4.8 6.4 0.00 0.00 0.00 63 1011.4
20260831162142 24 74 4.8 6.4 0.00 0.00 0.00 61 1011.4
20260831161638 25 36 3.2 3.2 0.00 0.00 0.00 63 1011.4
20260831161134 23 56 4.8 9.7 0.00 0.00 0.00 64 1011.4
20260831160633 24 49 3.2 8.0 0.00 0.00 0.00 66 1011.4
20260831160128 23 20 3.2 6.4 0.00 0.00 0.00 69 1011.4
20260831155627 23 66 1.6 6.4 0.00 0.00 0.00 70 1011.4
20260831155123 23 348 0.0 4.8 0.00 0.00 0.00 70 1011.4
20260831154619 23 28 1.6 4.8 0.00 0.00 0.00 70 1011.4
20260831154114 23 264 6.4 9.7 0.00 0.00 0.00 71 1011.4
20260831153613 23 247 3.2 8.0 0.00 0.00 0.00 71 1011.4
20260831153110 23 293 1.6 6.4 0.00 0.00 0.00 74 1011.4
20260831152605 22 305 4.8 9.7 0.00 0.00 0.00 73
20260831152100 22 344 1.6 6.4 0.00 0.00 0.00 76
20260831151600 22 4 4.8 8.0 0.00 0.00 0.00 76
20260831151054 22 273 3.2 8.0 0.00 0.00 0.00 76
20260831150549 22 326 3.2 4.8 0.00 0.00 0.00 79
20260831150046 21 261 4.8 6.4 0.00 0.00 0.00 80
20260831145539 21 232 8.0 11.3 0.00 0.00 0.00 80
20260831145036 21 267 3.2 8.0 0.00 0.00 0.00 82
20260831144532 21 247 6.4 6.4 0.00 0.00 0.00 81
20260831144027 21 284 3.2 6.4 0.00 0.00 0.00 83
20260831143522 20 278 4.8 8.0 0.00 0.00 0.00 83
20260831143017 21 273 6.4 6.4 0.00 0.00 0.00 84
20260831142514 20 246 0.0 8.0 0.00 0.00 0.00 85
20260831142009 20 221 3.2 6.4 0.00 0.00 0.00 85 1010.1
20260831141508 20 349 4.8 6.4 0.00 0.00 0.00 86 1010.1
20260831141003 20 226 8.0 9.7 0.00 0.00 0.00 86 1010.1
20260831140502 20 281 1.6 6.4 0.00 0.00 0.00 89 1010.1
20260831140001 19 257 3.2 8.0 0.00 0.00 0.00 90 1010.1
20260831135500 18 42 0.0 4.8 0.00 0.00 0.00 91 1010.1
20260831134955 18 14 3.2 4.8 0.00 0.00 0.00 93 1010.1
20260831134452 18 13 3.2 4.8 0.00 0.00 0.00 93 1010.1
20260831133951 18 242 3.2 4.8 0.00 0.00 0.00 94 1010.1
20260831133446 18 277 3.2 8.0 0.00 0.00 0.00 94 1010.1
20260831132941 18 235 6.4 6.4 0.00 0.00 0.00 95 1010.1
20260831132436 18 274 4.8 6.4 0.00 0.00 0.00 95 1010.1
20260831131936 17 252 3.2 12.9 0.00 0.00 0.00 96 1009.3
20260831131431 17 309 0.0 11.3 0.00 0.00 0.00 96 1009.3
20260831130927 17 19 6.4 11.3 0.00 0.00 0.00 96 1009.3
20260831130422 17 7 1.6 6.4 0.00 0.00 0.00 96 1009.3
20260831125921 17 11 1.6 8.0 0.00 0.00 0.00 96 1009.3
20260831125416 17 33 0.0 9.7 0.00 0.00 0.00 97 1009.3
20260831124912 17 16 9.7 9.7 0.00 0.00 0.00 97 1009.3
20260831124408 17 32 4.8 6.4 0.00 0.00 0.00 97 1009.3
20260831123903 17 19 0.0 8.0 0.00 0.00 0.00 97 1009.3
20260831123401 17 278 3.2 16.1 0.00 0.00 0.00 97 1009.3
20260831122901 17 310 3.2 9.7 0.00 0.00 0.00 97 1009.3
20260831122357 17 2 3.2 8.0 0.00 0.00 0.00 97 1009.2
20260831121852 17 62 3.2 8.0 0.00 0.00 0.00 97 1009.2
20260831121348 17 28 3.2 9.7 0.00 0.00 0.00 97 1009.2
20260831120843 17 306 4.8 20.9 0.00 0.00 0.00 97 1009.0
20260831120338 17 220 4.8 6.4 0.00 0.00 0.00 98 1008.9
20260831115833 17 245 9.7 9.7 0.00 0.00 0.00 98 1008.6
20260831115330 17 320 8.0 11.3 0.00 0.00 0.00 98 1008.7
20260831114828 17 316 1.6 8.0 0.00 0.00 0.00 98 1008.5
20260831114322 17 283 6.4 9.7 0.00 0.00 0.00 98 1008.4
20260831113818 17 1 0.0 6.4 0.00 0.00 0.00 98 1008.4
20260831113318 17 265 6.4 8.0 0.00 0.00 0.00 97 1008.2